{"data":{"norad_id":56329,"epoch":"2026-09-20T22:18:33.250464Z","epoch_age_seconds":72045,"freshness":"FRESH","line1":"1 56329U 23058N   26263.92955151  .00000835  00000+0  28186-4 0  9993","line2":"2 56329  97.2842 260.7186 0001349  91.3413 268.7984 15.33437288187708","mean_motion":15.33437288,"eccentricity":0.0001349,"inclination_deg":97.2842,"raan_deg":260.7186,"arg_perigee_deg":91.3413,"mean_anomaly_deg":268.7984,"bstar":2.8186e-5,"rev_number":18770,"period_min":93.906676932197,"perigee_km":464.64290450955,"apogee_km":466.48933561134,"semimajor_km":6843.7031200604,"source":"CELESTRAK","updated_at":"2026-09-21T09:00:33.402895Z"}}